Wind_Speed
11 10 11 8 8 10 13 17 22 25 31 36 40 42 42 41 40 40 49 48 47 50 51 52 52 52 51 51 50 51 51 51 51 51 50 49 47 47 45 44 44 47 47 52
9 11 5 9 11 13 15 20 24 26 33 39 41 42 40 36 39 39 41 37 41 45 48 49 50 51 51 51 51 48 48 49 49 50 50 49 48 49 48 46 46 44 47 46
9 13 8 11 13 15 18 25 27 33 36 38 41 40 36 30 34 36 37 42 43 41 47 48 46 49 52 52 53 53 48 49 51 50 49 48 48 48 47 47 46 44 44 43
10 11 10 13 16 19 23 28 33 36 39 39 37 39 25 18 29 29 48 51 56 62 61 58 56 54 50 51 54 56 52 47 50 51 50 48 45 44 44 44 43 43 42 43
12 11 12 15 20 24 26 31 35 37 37 37 28 25 12 22 22 30 30 33 34 45 56 66 65 62 60 56 52 54 54 47 45 49 49 48 46 43 40 40 41 43 43 42
12 15 15 18 23 28 30 34 36 39 36 20 15 24 21 22 29 34 39 39 40 43 49 63 62 57 52 55 50 52 49 52 48 48 48 47 47 45 43 42 44 41 41 53
13 17 20 18 25 29 32 38 38 40 35 28 25 32 29 34 36 41 47 52 55 57 56 56 50 48 65 41 50 53 49 45 45 45 47 45 46 46 45 46 44 40 36 22
17 18 28 30 29 34 34 37 35 39 39 39 37 21 29 36 45 51 58 59 58 53 49 47 43 62 41 36 41 45 49 38 20 43 41 42 41 43 44 44 46 46 46 49
23 23 27 31 31 35 35 34 32 36 38 40 40 30 20 40 45 48 49 45 43 35 35 47 57 65 47 45 44 41 37 39 34 39 32 35 36 41 43 42 43 45 48 47
27 28 29 32 34 35 38 38 37 36 41 46 42 40 22 34 42 50 53 56 53 50 53 58 55 55 50 42 37 35 31 34 40 25 24 29 33 39 45 43 43 42 43 38
31 32 32 34 35 38 34 32 31 35 37 39 46 41 33 36 34 39 32 32 34 38 37 37 38 40 36 32 25 32 28 28 27 25 26 27 32 36 43 40 36 41 34 34
37 35 36 33 34 36 35 33 36 41 43 47 46 43 32 26 35 39 42 40 39 40 39 37 34 33 33 32 27 26 26 26 32 29 28 29 34 37 41 56 56 42 38 29
39 36 39 34 38 41 39 36 37 39 42 44 42 39 25 28 37 37 41 43 41 42 41 41 41 39 36 33 28 25 25 24 30 33 32 33 38 40 46 45 42 27 36 29
38 33 36 35 35 34 34 34 35 38 41 39 38 34 27 34 31 28 37 38 43 42 43 43 41 41 38 39 33 32 28 26 30 28 30 32 34 39 36 37 46 37 30 28
31 32 35 33 34 35 35 36 37 39 37 37 34 27 31 32 31 32 36 40 42 43 45 44 39 38 37 38 35 37 35 31 33 32 34 34 30 31 29 29 33 38 31 28
32 32 36 32 33 34 36 37 38 34 36 33 28 30 31 33 32 34 40 44 44 42 42 41 38 37 37 34 32 29 33 31 32 32 32 29 25 21 20 24 24 19 23 29
34 37 37 34 34 35 34 38 37 35 32 33 34 35 35 29 32 37 41 47 43 42 42 41 38 37 32 30 29 26 26 28 30 26 22 21 18 17 21 19 17 19 24 27
33 33 36 36 36 36 34 39 40 37 33 33 34 36 35 36 32 35 42 45 45 43 40 37 37 37 36 31 26 22 20 20 20 16 16 21 14 15 16 19 19 19 22 26
31 31 35 37 38 37 39 38 40 38 35 36 34 37 35 36 33 31 41 43 46 42 38 36 35 37 37 31 23 17 15 12 8 13 19 6 6 10 12 14 15 18 26 30
36 34 36 36 39 39 33 37 39 38 37 36 34 34 36 36 37 32 37 41 44 39 34 37 38 32 31 27 9 8 7 2 7 12 3 2 6 7 9 12 18 23 27 32
39 42 43 41 42 42 41 41 41 41 39 38 39 39 37 35 38 38 39 41 47 40 39 35 27 23 26 14 4 4 4 4 5 6 9 8 4 3 7 12 18 23 26 30
34 40 39 39 39 38 40 41 41 41 40 41 40 40 37 36 36 36 39 43 46 41 34 25 22 17 17 6 2 6 7 6 5 7 6 4 4 8 11 12 16 20 23 14
36 38 39 39 38 39 37 39 42 45 43 42 41 40 38 38 36 35 37 43 42 36 35 26 16 11 9 3 5 9 6 7 7 5 4 5 6 8 7 17 14 12 10 7
32 36 40 40 37 38 37 39 42 42 39 40 38 38 40 39 36 33 34 40 33 28 19 5 2 3 4 7 8 9 9 8 7 10 8 7 6 10 9 17 12 14 15 15
33 36 38 37 37 40 40 40 40 41 39 37 39 40 39 38 33 29 31 31 23 17 7 4 4 5 7 10 11 10 11 11 10 10 9 8 8 9 12 14 18 17 15 15
34 36 38 38 38 39 40 40 40 40 37 38 40 37 35 33 27 26 28 21 14 11 1 8 9 9 10 12 12 11 11 13 13 11 11 11 13 15 18 20 20 20 19 19
Wind_Direction
259 261 267 287 278 277 276 282 291 293 296 302 306 306 305 303 297 291 287 294 293 290 291 290 290 288 285 282 280 282 281 280 279 278 278 278 277 276 275 275 274 276 277 280
261 269 267 274 281 284 287 288 290 302 303 305 307 307 307 308 298 294 292 291 290 293 291 292 292 290 288 285 282 279 280 279 277 277 276 276 275 276 275 275 275 276 279 282
262 269 283 280 286 292 301 300 307 306 306 308 309 314 312 308 293 309 302 295 292 287 292 294 292 291 291 290 287 283 278 280 278 276 275 274 273 273 274 275 275 275 276 280
257 277 284 293 298 302 303 304 308 310 312 315 316 323 344 306 314 310 313 310 308 306 304 303 299 296 293 295 290 284 282 279 278 276 274 272 270 268 267 269 273 272 273 273
266 273 285 298 303 305 306 307 311 310 314 320 347 319 310 318 297 299 300 305 290 290 293 297 303 305 300 295 291 287 284 279 276 273 271 270 268 266 264 265 267 269 271 267
274 295 303 304 305 306 310 313 320 320 327 318 303 263 292 288 272 266 258 270 272 273 277 285 301 294 294 306 296 291 286 280 275 271 268 267 265 263 260 259 259 266 279 268
288 294 300 305 311 313 318 319 318 316 316 312 286 293 280 280 274 270 272 271 268 265 270 283 277 285 310 291 298 295 288 287 285 273 265 258 257 256 256 256 257 257 249 241
284 296 305 312 318 318 317 315 316 314 313 312 315 322 293 285 282 281 282 280 282 284 287 273 271 314 289 305 304 295 286 282 295 275 267 259 252 249 248 249 254 256 255 261
289 295 301 307 315 313 316 312 309 308 308 313 319 309 270 282 282 281 284 280 280 279 272 265 302 295 313 309 298 293 290 277 279 262 263 262 252 247 245 246 246 248 250 254
290 296 296 300 306 309 313 316 317 316 317 316 318 307 301 274 272 279 281 290 290 292 296 288 291 292 275 312 294 294 292 284 294 289 272 265 260 246 242 247 245 246 249 262
290 296 301 307 311 313 314 310 306 305 307 305 314 315 308 299 297 300 303 305 302 297 302 306 298 298 291 276 300 288 285 291 302 282 281 267 263 260 248 247 251 247 253 266
292 298 302 309 307 307 307 307 308 316 320 314 315 318 314 309 295 294 303 297 308 310 306 304 305 309 313 301 300 301 290 294 295 293 282 276 269 263 259 251 263 248 258 257
293 300 302 309 312 312 316 320 315 312 311 311 306 314 307 284 288 301 304 312 313 306 308 308 308 304 304 306 288 294 287 298 293 286 286 279 272 266 266 261 254 248 242 244
294 299 301 307 307 307 307 309 309 309 310 309 308 308 311 290 306 310 308 310 312 313 314 313 309 302 295 293 287 287 282 279 286 282 289 289 284 272 271 264 255 263 232 240
289 297 300 305 306 304 309 310 313 316 312 303 306 294 286 297 301 313 311 315 315 318 317 316 314 313 307 302 287 282 279 274 277 276 278 284 285 272 268 255 252 267 237 241
298 305 304 305 302 307 313 311 311 310 313 309 294 288 274 294 310 312 311 314 319 319 316 315 316 313 308 303 299 292 279 271 274 282 287 285 281 258 250 229 257 237 237 245
303 303 301 307 305 310 311 309 312 315 309 302 296 289 291 299 303 310 310 311 322 319 318 318 318 319 317 305 300 293 287 282 282 289 287 296 292 259 227 248 228 228 241 258
300 302 304 305 307 310 312 310 312 313 311 299 299 293 293 291 299 307 306 316 322 321 317 317 318 320 322 319 300 299 294 286 290 295 296 301 299 241 235 211 221 240 265 272
298 301 301 305 307 308 308 313 312 313 311 303 301 296 293 288 292 301 306 316 321 318 312 315 316 317 318 320 312 279 293 293 296 299 297 271 191 186 207 224 248 274 277 287
305 305 302 307 308 308 310 308 311 311 308 308 301 299 296 295 294 302 304 311 318 313 312 313 314 314 318 326 300 265 281 7 323 310 268 211 187 204 236 259 276 288 295 295
305 306 309 312 310 314 312 316 314 311 308 306 301 301 299 298 300 301 306 315 318 314 313 315 315 321 323 334 242 246 106 10 339 64 67 61 42 340 306 299 300 297 296 294
298 298 302 303 305 308 306 308 306 303 302 300 299 299 300 293 293 297 305 313 316 314 313 311 315 319 327 335 189 102 89 72 69 74 56 52 10 341 326 312 303 312 312 312
299 299 299 300 303 304 307 306 303 301 304 301 300 300 301 296 294 297 303 313 318 318 312 300 294 312 327 133 115 95 94 79 94 106 80 38 12 1 338 323 346 319 309 328
300 297 298 301 307 304 307 304 301 303 302 303 305 302 300 302 298 296 303 315 322 327 323 315 258 329 352 126 122 120 110 107 87 72 72 63 52 349 14 357 40 54 54 54
297 296 299 306 303 304 308 305 303 305 308 310 305 304 304 301 298 294 302 317 319 327 324 123 135 65 116 131 112 106 101 95 92 95 71 49 11 28 358 62 70 69 63 58
299 301 304 305 305 309 307 305 305 307 312 308 305 304 300 299 292 290 306 305 312 313 202 143 117 101 112 125 120 111 119 116 96 72 57 66 56 57 93 86 77 66 56 49
Height
5851 5852 5851 5852 5853 5853 5853 5852 5851 5849 5845 5840 5837 5833 5830 5826 5822 5818 5810 5807 5802 5796 5792 5789 5786 5783 5782 5781 5780 5777 5776 5775 5774 5773 5772 5772 5772 5772 5773 5775 5776 5774 5774 5769
5849 5848 5849 5849 5849 5849 5849 5847 5845 5843 5839 5834 5830 5824 5821 5815 5810 5808 5803 5800 5794 5789 5783 5779 5776 5773 5770 5768 5766 5768 5766 5763 5762 5761 5761 5761 5760 5760 5761 5762 5764 5765 5763 5762
5844 5844 5845 5845 5845 5845 5843 5840 5838 5836 5832 5827 5820 5817 5811 5808 5800 5798 5796 5794 5789 5781 5776 5772 5767 5762 5759 5757 5754 5754 5756 5753 5750 5750 5749 5749 5749 5749 5749 5749 5751 5751 5752 5753
5841 5840 5841 5841 5840 5839 5838 5834 5831 5827 5822 5818 5812 5807 5805 5802 5798 5789 5780 5773 5768 5764 5759 5756 5751 5749 5749 5745 5738 5736 5740 5743 5738 5737 5736 5736 5737 5737 5737 5739 5741 5736 5740 5739
5837 5838 5838 5837 5835 5833 5832 5828 5824 5820 5816 5809 5807 5807 5811 5801 5800 5795 5782 5772 5763 5757 5751 5744 5742 5737 5733 5729 5725 5721 5722 5726 5724 5721 5722 5723 5724 5726 5727 5729 5728 5727 5729 5730
5833 5832 5832 5832 5829 5826 5824 5821 5816 5810 5807 5807 5809 5799 5800 5796 5789 5785 5780 5772 5760 5751 5742 5737 5733 5727 5723 5722 5712 5709 5704 5705 5707 5705 5706 5709 5711 5713 5716 5717 5714 5721 5724 5714
5829 5828 5826 5827 5824 5820 5816 5811 5807 5804 5802 5801 5796 5794 5787 5779 5772 5767 5764 5756 5751 5741 5735 5728 5721 5715 5711 5708 5700 5698 5694 5692 5693 5690 5690 5692 5696 5699 5703 5704 5706 5709 5714 5679
5824 5824 5818 5816 5816 5812 5810 5806 5802 5795 5793 5791 5788 5785 5775 5768 5761 5753 5748 5742 5740 5734 5725 5717 5707 5703 5696 5694 5688 5686 5683 5683 5681 5677 5676 5679 5682 5685 5688 5692 5695 5696 5697 5695
5818 5818 5815 5811 5810 5806 5803 5799 5795 5790 5786 5782 5780 5777 5777 5760 5750 5739 5730 5732 5726 5721 5713 5706 5701 5700 5689 5681 5679 5675 5675 5673 5667 5662 5665 5667 5669 5672 5675 5678 5682 5684 5685 5685
5812 5811 5810 5807 5804 5801 5794 5790 5784 5780 5774 5770 5770 5764 5760 5748 5739 5729 5725 5719 5715 5709 5703 5697 5694 5690 5685 5669 5667 5667 5667 5664 5662 5660 5659 5660 5660 5660 5663 5666 5669 5673 5675 5678
5806 5805 5803 5799 5795 5790 5788 5784 5780 5775 5771 5763 5757 5755 5747 5737 5727 5720 5718 5713 5707 5701 5695 5689 5685 5679 5674 5672 5662 5661 5658 5657 5657 5656 5654 5654 5653 5652 5654 5658 5660 5660 5663 5670
5797 5796 5792 5792 5788 5785 5781 5776 5771 5763 5758 5749 5744 5741 5736 5730 5718 5713 5709 5703 5700 5695 5689 5683 5678 5671 5666 5664 5660 5656 5653 5651 5650 5648 5647 5646 5646 5646 5645 5642 5640 5651 5654 5659
5789 5788 5784 5784 5778 5772 5769 5765 5760 5756 5750 5744 5737 5733 5729 5725 5714 5710 5701 5697 5692 5684 5680 5674 5669 5665 5660 5657 5654 5652 5649 5645 5644 5642 5640 5638 5637 5636 5634 5634 5637 5639 5646 5650
5783 5783 5778 5777 5773 5767 5764 5760 5754 5748 5741 5735 5729 5723 5720 5711 5708 5705 5697 5692 5684 5677 5670 5664 5658 5654 5651 5646 5645 5643 5642 5638 5637 5634 5633 5630 5628 5625 5625 5627 5631 5635 5637 5643
5779 5776 5771 5768 5764 5759 5755 5750 5744 5739 5733 5726 5722 5718 5711 5706 5701 5697 5691 5684 5678 5672 5663 5656 5649 5643 5639 5634 5634 5633 5632 5628 5628 5626 5624 5621 5619 5617 5619 5621 5625 5627 5632 5635
5768 5766 5762 5761 5754 5750 5746 5741 5737 5732 5725 5718 5714 5710 5705 5698 5694 5690 5682 5675 5671 5664 5657 5650 5644 5637 5632 5627 5623 5622 5621 5619 5617 5615 5613 5611 5609 5610 5613 5617 5621 5623 5628 5631
5759 5756 5752 5751 5745 5741 5739 5732 5727 5723 5717 5711 5706 5700 5694 5694 5689 5682 5675 5667 5664 5657 5649 5642 5637 5631 5625 5620 5616 5614 5612 5611 5609 5607 5605 5604 5603 5606 5610 5613 5616 5621 5624 5624
5752 5749 5743 5740 5736 5734 5729 5721 5717 5714 5709 5702 5697 5690 5687 5683 5683 5676 5667 5661 5655 5648 5642 5637 5631 5625 5619 5614 5609 5608 5606 5605 5603 5602 5601 5601 5600 5601 5606 5611 5615 5617 5618 5618
5744 5741 5736 5731 5727 5724 5719 5712 5709 5704 5700 5692 5689 5684 5680 5676 5674 5673 5661 5655 5648 5642 5635 5631 5626 5620 5613 5608 5604 5602 5602 5602 5601 5601 5601 5599 5600 5604 5608 5610 5613 5615 5614 5614
5733 5732 5728 5724 5717 5714 5710 5704 5699 5695 5691 5685 5680 5675 5671 5668 5663 5663 5656 5650 5642 5635 5629 5625 5619 5614 5608 5603 5599 5599 5601 5601 5601 5601 5599 5601 5603 5606 5609 5612 5612 5613 5612 5609
5724 5718 5715 5711 5705 5703 5697 5694 5689 5686 5683 5676 5670 5666 5662 5659 5654 5650 5647 5642 5635 5627 5623 5618 5613 5609 5605 5601 5600 5600 5600 5601 5602 5603 5603 5605 5607 5609 5611 5612 5611 5610 5605 5600
5720 5714 5710 5705 5701 5697 5691 5686 5682 5677 5672 5667 5662 5657 5654 5651 5647 5643 5639 5633 5626 5620 5616 5612 5609 5607 5604 5601 5601 5602 5603 5604 5606 5607 5609 5610 5612 5612 5611 5610 5607 5603 5597 5593
5712 5705 5701 5699 5694 5688 5683 5676 5670 5663 5660 5656 5652 5649 5645 5641 5638 5635 5632 5626 5619 5613 5607 5604 5605 5604 5602 5602 5603 5604 5605 5608 5609 5610 5612 5613 5613 5612 5610 5608 5603 5600 5595 5590
5703 5697 5691 5688 5687 5679 5675 5668 5661 5657 5652 5647 5644 5640 5634 5631 5629 5627 5625 5620 5614 5609 5603 5601 5602 5603 5603 5605 5606 5607 5610 5612 5613 5614 5615 5615 5614 5612 5611 5607 5601 5597 5594 5591
5692 5687 5683 5680 5675 5669 5665 5657 5651 5647 5643 5640 5634 5629 5625 5621 5620 5618 5617 5614 5612 5608 5603 5602 5603 5604 5605 5607 5609 5612 5614 5615 5616 5617 5617 5617 5616 5615 5612 5607 5604 5601 5598 5594
5681 5677 5674 5671 5665 5659 5654 5648 5642 5638 5635 5629 5624 5620 5616 5612 5612 5611 5610 5609 5609 5606 5605 5604 5607 5607 5608 5611 5614 5616 5617 5619 5620 5621 5621 5620 5619 5617 5615 5612 5609 5606 5603 5597